TimeCDT,TemperatureF,Dew PointF,Humidity,Sea Level PressureIn,VisibilityMPH,Wind Direction,Wind SpeedMPH,Gust SpeedMPH,PrecipitationIn,Events,Conditions,WindDirDegrees,DateUTC
12:15 AM,46.4,42.8,87,29.99,10.0,Calm,Calm,-,N/A,,Clear,0,2012-10-16 05:15:00
12:35 AM,48.2,44.6,87,30.00,10.0,Calm,Calm,-,N/A,,Clear,0,2012-10-16 05:35:00
12:55 AM,46.4,42.8,87,30.00,10.0,Calm,Calm,-,N/A,,Clear,0,2012-10-16 05:55:00
1:15 AM,46.4,42.8,87,30.00,10.0,West,5.8,-,N/A,,Clear,260,2012-10-16 06:15:00
1:35 AM,46.4,42.8,87,30.01,10.0,West,4.6,-,N/A,,Clear,260,2012-10-16 06:35:00
1:55 AM,46.4,42.8,87,30.01,10.0,Calm,Calm,-,N/A,,Clear,0,2012-10-16 06:55:00
2:15 AM,44.6,42.8,93,30.01,10.0,Calm,Calm,-,N/A,,Clear,0,2012-10-16 07:15:00
2:55 AM,44.6,42.8,93,30.00,10.0,Calm,Calm,-,N/A,,Clear,0,2012-10-16 07:55:00
3:15 AM,44.6,42.8,93,30.00,10.0,Calm,Calm,-,N/A,,Clear,0,2012-10-16 08:15:00
3:35 AM,44.6,42.8,93,29.99,10.0,Calm,Calm,-,N/A,,Clear,0,2012-10-16 08:35:00
3:55 AM,44.6,42.8,93,30.00,10.0,Calm,Calm,-,N/A,,Clear,0,2012-10-16 08:55:00
4:15 AM,42.8,41.0,93,30.00,10.0,Calm,Calm,-,N/A,,Clear,0,2012-10-16 09:15:00
4:35 AM,42.8,39.2,87,30.01,10.0,West,3.5,-,N/A,,Clear,260,2012-10-16 09:35:00
4:55 AM,44.6,42.8,93,30.01,10.0,Calm,Calm,-,N/A,,Clear,0,2012-10-16 09:55:00
5:15 AM,42.8,39.2,87,30.02,10.0,Calm,Calm,-,N/A,,Clear,0,2012-10-16 10:15:00
5:35 AM,42.8,39.2,87,30.02,10.0,Calm,Calm,-,N/A,,Clear,0,2012-10-16 10:35:00
5:55 AM,42.8,39.2,87,30.01,10.0,Calm,Calm,-,N/A,,Clear,0,2012-10-16 10:55:00
6:35 AM,42.8,41.0,93,30.02,10.0,Calm,Calm,-,N/A,,Clear,0,2012-10-16 11:35:00
7:15 AM,42.8,39.2,87,30.01,10.0,West,3.5,-,N/A,,Clear,270,2012-10-16 12:15:00
7:35 AM,44.6,42.8,93,30.01,10.0,Calm,Calm,-,N/A,,Clear,0,2012-10-16 12:35:00
7:55 AM,46.4,44.6,93,30.02,10.0,Calm,Calm,-,N/A,,Clear,0,2012-10-16 12:55:00
8:15 AM,48.2,44.6,87,30.03,10.0,Calm,Calm,-,N/A,,Clear,0,2012-10-16 13:15:00
8:35 AM,50.0,46.4,87,30.03,10.0,Calm,Calm,-,N/A,,Clear,0,2012-10-16 13:35:00
8:55 AM,53.6,48.2,82,30.03,10.0,Calm,Calm,-,N/A,,Clear,0,2012-10-16 13:55:00
9:15 AM,55.4,48.2,77,30.04,10.0,Calm,Calm,-,N/A,,Clear,0,2012-10-16 14:15:00
9:35 AM,57.2,48.2,72,30.04,3.0,Calm,Calm,-,N/A,,Clear,0,2012-10-16 14:35:00
9:55 AM,59.0,48.2,67,30.04,10.0,Calm,Calm,-,N/A,,Clear,0,2012-10-16 14:55:00
10:15 AM,60.8,48.2,63,30.04,10.0,Calm,Calm,-,N/A,,Clear,0,2012-10-16 15:15:00
10:35 AM,64.4,46.4,52,30.03,10.0,ESE,4.6,-,N/A,,Clear,110,2012-10-16 15:35:00
10:55 AM,66.2,46.4,49,30.03,10.0,NE,3.5,-,N/A,,Clear,40,2012-10-16 15:55:00
11:15 AM,66.2,46.4,49,30.03,10.0,Calm,Calm,-,N/A,,Clear,0,2012-10-16 16:15:00
11:35 AM,66.2,46.4,49,30.02,10.0,Calm,Calm,-,N/A,,Clear,0,2012-10-16 16:35:00
11:55 AM,66.2,46.4,49,30.02,10.0,Calm,Calm,-,N/A,,Clear,0,2012-10-16 16:55:00
12:15 PM,69.8,46.4,43,30.00,10.0,East,6.9,-,N/A,,Clear,80,2012-10-16 17:15:00
12:35 PM,69.8,46.4,43,29.98,10.0,North,4.6,-,N/A,,Clear,350,2012-10-16 17:35:00
12:55 PM,69.8,44.6,40,29.97,10.0,Calm,Calm,-,N/A,,Clear,0,2012-10-16 17:55:00
1:15 PM,71.6,46.4,41,29.97,10.0,NNE,4.6,-,N/A,,Clear,30,2012-10-16 18:15:00
1:35 PM,69.8,42.8,38,29.96,10.0,Calm,Calm,-,N/A,,Clear,0,2012-10-16 18:35:00
1:55 PM,71.6,44.6,38,29.96,10.0,Calm,Calm,-,N/A,,Clear,0,2012-10-16 18:55:00
2:15 PM,71.6,46.4,41,29.95,10.0,Calm,Calm,-,N/A,,Clear,0,2012-10-16 19:15:00
2:35 PM,71.6,44.6,38,29.94,10.0,Calm,Calm,-,N/A,,Clear,0,2012-10-16 19:35:00
2:55 PM,71.6,44.6,38,29.93,10.0,Calm,Calm,-,N/A,,Clear,0,2012-10-16 19:55:00
3:15 PM,71.6,46.4,41,29.92,10.0,Calm,Calm,-,N/A,,Clear,0,2012-10-16 20:15:00
3:35 PM,71.6,46.4,41,29.92,10.0,Calm,Calm,-,N/A,,Clear,0,2012-10-16 20:35:00
3:55 PM,69.8,48.2,46,29.91,10.0,Calm,Calm,-,N/A,,Clear,0,2012-10-16 20:55:00
4:15 PM,69.8,46.4,43,29.90,10.0,Calm,Calm,-,N/A,,Clear,0,2012-10-16 21:15:00
4:35 PM,69.8,48.2,46,29.90,10.0,South,3.5,-,N/A,,Clear,180,2012-10-16 21:35:00
4:55 PM,69.8,48.2,46,29.90,10.0,South,3.5,-,N/A,,Clear,190,2012-10-16 21:55:00
5:15 PM,66.2,53.6,64,29.90,10.0,Calm,Calm,-,N/A,,Clear,0,2012-10-16 22:15:00
5:35 PM,66.2,51.8,60,29.90,10.0,SW,3.5,-,N/A,,Clear,230,2012-10-16 22:35:00
5:55 PM,64.4,53.6,68,29.90,10.0,Calm,Calm,-,N/A,,Clear,0,2012-10-16 22:55:00
6:15 PM,62.6,53.6,72,29.89,10.0,Calm,Calm,-,N/A,,Clear,0,2012-10-16 23:15:00
6:35 PM,60.8,53.6,77,29.90,10.0,Calm,Calm,-,N/A,,Clear,0,2012-10-16 23:35:00
6:55 PM,60.8,53.6,77,29.89,10.0,Calm,Calm,-,N/A,,Clear,0,2012-10-16 23:55:00
7:15 PM,59.0,53.6,82,29.89,10.0,Calm,Calm,-,N/A,,Clear,0,2012-10-17 00:15:00
7:35 PM,57.2,53.6,88,29.90,10.0,Calm,Calm,-,N/A,,Clear,0,2012-10-17 00:35:00
7:55 PM,57.2,53.6,88,29.90,10.0,Calm,Calm,-,N/A,,Clear,0,2012-10-17 00:55:00
8:15 PM,57.2,53.6,88,29.90,10.0,Calm,Calm,-,N/A,,Clear,0,2012-10-17 01:15:00
8:35 PM,57.2,53.6,88,29.90,10.0,Calm,Calm,-,N/A,,Clear,0,2012-10-17 01:35:00
8:55 PM,57.2,51.8,82,29.91,10.0,Calm,Calm,-,N/A,,Clear,0,2012-10-17 01:55:00
9:15 PM,57.2,53.6,88,29.91,10.0,Calm,Calm,-,N/A,,Clear,0,2012-10-17 02:15:00
9:35 PM,57.2,53.6,88,29.91,10.0,Calm,Calm,-,N/A,,Clear,0,2012-10-17 02:35:00
9:55 PM,55.4,51.8,88,29.92,10.0,Calm,Calm,-,N/A,,Clear,0,2012-10-17 02:55:00
10:15 PM,55.4,51.8,88,29.92,10.0,Calm,Calm,-,N/A,,Clear,0,2012-10-17 03:15:00
10:35 PM,55.4,53.6,94,29.93,10.0,Calm,Calm,-,N/A,,Clear,0,2012-10-17 03:35:00
10:55 PM,55.4,51.8,88,29.93,10.0,Calm,Calm,-,N/A,,Clear,0,2012-10-17 03:55:00
11:15 PM,55.4,51.8,88,29.93,10.0,Calm,Calm,-,N/A,,Clear,0,2012-10-17 04:15:00
11:35 PM,55.4,51.8,88,29.93,10.0,Calm,Calm,-,N/A,,Clear,0,2012-10-17 04:35:00
11:55 PM,55.4,51.8,88,29.93,10.0,Calm,Calm,-,N/A,,Clear,0,2012-10-17 04:55:00